Location: Buch
(49.7331°N, 12.1098°E)
Time: 01:04:49
(UTC+00:00)

Cosmos 1743 - Pass Details

Date: 12 May 2021
Orbit: 510 x 525 km, 82.6° (Epoch: 18 June)

Event Time Altitude Azimuth Distance (km) Brightness Sun altitude
Rises 20:53:03 0° 355° (N) 2,654 7.4 -15.7°
Reaches altitude 10° 20:55:18 10° 3° (N) 1,763 6.2 -15.9°
Maximum altitude 20:58:58 40° 75° (ENE) 779 3.4 -16.2°
Enters shadow 21:00:13 30° 119° (ESE) 950 3.5 -16.3°
